Location: �couen
(49.0206°N, 2.3831°E)
Time: 20:39:33
(UTC+00:00)

Cosmos 2227 - Pass Details

Date: 02 June 2022
Orbit: 833 x 863 km, 71.0° (Epoch: 25 June)

Event Time Altitude Azimuth Distance (km) Brightness Sun altitude
Rises 21:07:02 0° 324° (NW) 3,449 9.8 -10.1°
Reaches altitude 10° 21:09:48 10° 313° (NW) 2,509 8.2 -10.4°
Maximum altitude 21:14:36 28° 256° (WSW) 1,572 5.9 -10.9°
Drops below altitude 10° 21:19:23 10° 200° (SSW) 2,495 6.3 -11.3°
Enters shadow 21:21:13 - 192° (SSW) 3,107 6.7 -11.5°
